Location: Gälforsberget
(66.6500°N, 22.4167°E)
Time: 10:46:23
(UTC+00:00)

ATLAS 3B R/B - Pass Details

Date: 11 April 2026
Orbit: 937 x 1257 km, 63.8° (Epoch: 18 May)

Event Time Altitude Azimuth Distance (km) Brightness Sun altitude
Rises 20:19:22 0° 249° (WSW) 4,169 5.9 -11.1°
Reaches altitude 10° 20:22:08 10° 247° (WSW) 3,223 5.3 -11.2°
Maximum altitude 20:29:56 70° 166° (SSE) 1,333 3.0 -11.6°
Drops below altitude 10° 20:37:41 10° 85° (E) 3,209 5.0 -12.0°
Sets 20:40:26 0° 84° (E) 4,150 5.6 -12.1°
